Location: Augustenthal
(51.7167°N, 10.2833°E)
Time: 14:12:53
(UTC+00:00)

Cosmos 1455 Rocket - Pass Details

Date: 29 September 2021
Orbit: 606 x 628 km, 82.5° (Epoch: 21 October)

Event Time Altitude Azimuth Distance (km) Brightness Sun altitude
Exits shadow 21:42:53 14° 337° (NNW) 1,738 6.0 -37.8°
Drops below altitude 10° 21:43:45 10° 346° (NNW) 1,988 6.3 -37.9°
Sets 21:46:26 0° 2° (N) 2,904 7.2 -38.1°
